Regional Weather Roundup
Issued by NWS

Home | Current Version | Previous Version | Text Only | Print | Product List | Glossary Off
Versions: 1 2 3 4 5 6 7 8 9 10 11 12 13 14 15 16 17 18 19 20 21 22 23 24 25 26 27 28 29 30 31 32 33 34 35 36 37 38 39 40 41 42 43 44 45 46 47 48 49 50

000
ASUS43 KMKX 041621
RWRWI

WISCONSIN REGIONAL WEATHER ROUNDUP
NATIONAL WEATHER SERVICE MILWAUKEE/SULLIVAN WI
1100 AM CDT MON MAY 04 2015

NOTE: "FAIR" INDICATES FEW OR NO CLOUDS BELOW 12,000 FEET WITH NO
SIGNIFICANT WEATHER AND/OR OBSTRUCTIONS TO VISIBILITY.

WIZ001-002-006>008-014>016-023>028-041700-
NORTHWEST WISCONSIN

CITY           SKY/WX    TMP DP  RH WIND       PRES   REMARKS
SUPERIOR ARPT  SUNNY     61  33  34 W8        30.19R
ASHLAND        SUNNY     62  35  36 N9        30.17S
HAYWARD        SUNNY     60  34  37 VRB6      30.17R
SIREN          SUNNY     63  31  29 N15G22    30.18R
CUMBERLAND     SUNNY     61  27  27 N15G22    30.17R
RICE LAKE      SUNNY     63  28  27 N14       30.18R
CHETEK         SUNNY     62  34  35 N7G16     30.17R
LADYSMITH      SUNNY     62  34  36 N12G17    30.17R
EAU CLAIRE     SUNNY     64  35  34 N13       30.16R
MENOMONIE      SUNNY     62  33  33 N12G18    30.17R
NEW RICHMOND   SUNNY     64  31  29 NE9       30.18R
OSCEOLA        SUNNY     63  33  31 N12G18    30.21R
$$

WIZ003>005-009-010-017-018-041700-
NORTH CENTRAL WISCONSIN

CITY           SKY/WX    TMP DP  RH WIND       PRES   REMARKS
MANITOWISH WTR SUNNY     56  36  45 N7G17     30.14R
ARBOR VITAE    SUNNY     59  35  39 N9G18     30.14R
WOODRUFF       SUNNY     59  35  39 N9G18     30.14R
RHINELANDER    SUNNY     58  35  42 N7        30.13R
EAGLE RIVER    SUNNY     58  31  36 N9G23     30.13R
LAND O LAKES   SUNNY     58  35  41 N13G22    30.15R
PHILLIPS       SUNNY     58  34  40 N9        30.14R
TOMAHAWK       SUNNY     59  36  41 NW7       30.14R
MEDFORD        SUNNY     59  36  41 N13       30.14R
MERRILL        SUNNY     60  39  44 N12       30.13R
$$

WIZ029-030-035-036-043>047-041700-
CENTRAL WISCONSIN

CITY           SKY/WX    TMP DP  RH WIND       PRES   REMARKS
WAUSAU         SUNNY     64  36  35 VRB6      30.11R
MOSINEE        SUNNY     63  37  39 N9        30.13R
MARSHFIELD     SUNNY     66  38  35 N10       30.13R
STEVENS POINT  SUNNY     64  38  38 N8        30.13R
WAUPACA        SUNNY     68  42  38 N5        30.11R
WAUTOMA        MOSUNNY   68  39  34 N9        30.11R
WISC RAPIDS    SUNNY     66  36  32 NE14      30.13R
CAMP DOUGLAS   MOSUNNY   66  45  45 N7        30.12R
$$

WIZ011>013-019>022-031-037>040-048>050-041700-
NORTHEAST WISCONSIN

CITY           SKY/WX    TMP DP  RH WIND       PRES   REMARKS
ANTIGO         SUNNY     60  39  46 N8        30.13R
SHAWANO        SUNNY     69  37  31 NE10      30.10R
OCONTO         SUNNY     67  41  38 N9        30.09R
STURGEON BAY   MOSUNNY   63  39  42 N14       30.12R
GREEN BAY      SUNNY     69  39  33 NE12      30.09R
MANITOWOC      MOSUNNY   67  44  43 N9        30.08R
APPLETON       MOSUNNY   64  43  45 N13       30.09R
CLINTONVILLE   SUNNY     66  41  39 N9        30.09R
OSHKOSH        MOSUNNY   66  45  46 NE12      30.09R
$$

WIZ032>034-041-042-053>061-041700-
SOUTHWEST WISCONSIN

CITY           SKY/WX    TMP DP  RH WIND       PRES   REMARKS
LA CROSSE      SUNNY     69  36  29 N10       30.13R
SPARTA         SUNNY     66  37  33 N10G16    30.14R
VIROQUA        SUNNY     63  46  53 N10       30.14R
BOSCOBEL       MOSUNNY   69  56  62 E7        30.10R
PRAIRIE DU CHI CLOUDY    65  56  71 N5        30.11R
PLATTEVILLE    PTSUNNY   67  58  74 N8        30.10R
$$

WIZ056-057-062-063-064-067-068-041700-
SOUTH CENTRAL WISCONSIN

CITY           SKY/WX    TMP DP  RH WIND       PRES   REMARKS
REEDSBURG      PTSUNNY   64  52  64 N7        30.11R
BARABOO/DELLS  NOT AVBL
LONE ROCK      MOSUNNY   69  52  54 NE7       30.10R
MINERAL POINT  CLOUDY    64  57  77 N3        30.11R
MADISON        PTSUNNY   68  57  68 N8        30.09R
MIDDLETON      MOSUNNY   67  56  67 N3        30.11R
WATERTOWN      CLOUDY    64  60  86 N6        30.09R
MONROE         CLOUDY    63  57  82 N5        30.11R
JANESVILLE     CLOUDY    64  57  77 NW3       30.10R
$$

WIZ051-052-058>065-066-070>072-041700-
SOUTHEAST WISCONSIN

CITY           SKY/WX    TMP DP  RH WIND       PRES   REMARKS
MILWAUKEE      CLOUDY    64  55  72 NE7       30.09R
WAUKESHA       PTSUNNY   63  55  77 SW7       30.10R
MILWAUKEE/TIMM CLOUDY    66  54  63 NW5       30.09R
RACINE         CLOUDY    67  55  65 NE9       30.10R
BURLINGTON     CLOUDY    64  56  77 W5        30.09R
KENOSHA        CLOUDY    67  58  72 W8        30.09R
FOND DU LAC    MOSUNNY   66  54  65 N9        30.09R
SHEBOYGAN      PTSUNNY   68  49  50 NE14      30.07R
WEST BEND      CLOUDY    63  54  72 NW3       30.10R
JUNEAU         CLOUDY    63  56  77 NW3       30.11R
$$

LSZ147-162-041700-
LAKE SUPERIOR

STATION/POSITION TIME  TEMP    WIND        PRES    WAVE
                       AIR SEA DIR/SP/G            HT/PER
                 (UTC) (F)     (DEG/KT/KT) (MB)    (FT/S)
W MID LAKE BUOY  1550   39 35  240/  8/ 10 1022.2R   1
DEVILS ISLAND    1600   47     240/  8/ 11 1022.5R
PORT WING        1540   53     270/  4/  8 1022.4R
SAXON HARBOR     1500   54        CALM     1021.7R
$$

LMZ867-665-643>646-041700-
LAKE MICHIGAN

STATION/POSITION TIME  TEMP    WIND        PRES    WAVE
                       AIR SEA DIR/SP/G            HT/PER
                 (UTC) (F)     (DEG/KT/KT) (MB)    (FT/S)
CHAMBERS ISLAND  1500   55      10/  3/  5 1017.9R
NORTHPORT PIER   1500   50     310/  9/ 11 1017.9R
SISTER BAY       1502   55     360/ 13/ 17   N/A
KEWAUNEE LAKESHO 1500           30/  9/ 12   N/A
SHEBOYGAN LAKESH 1600   56      20/ 13/ 14 1019.1R
PORT WASHINGTON  1500   65     320/  6/ 12 1017.9R
ATWATER BUOY     1600   52     100/  2/  2 1020.4R
MILWAUKEE LAKESH 1600   52      60/  7/  8   N/A
KENOSHA   LAKESH 1600   66     270/  6/  9 1018.6R
$$

TC  - TEMPERATURE IN CELSIUS
VSB - VISIBILITY IN STATUTE MILES
WCI - WIND CHILL INDEX
HX  - HEAT INDEX




USA.gov is the U.S. government's official web portal to all federal, state and local government web resources and services.